User: anonymous
Location: Skalnate Pleso
(49.1889°N, 20.2450°E)
Time: 02:33:51
(UTC+02:00)
Language:

Iridium 45 - Orbit

View from above orbital plane
View from above orbital plane
View from above satellite
View from above satellite

Ground track
Ground track

The orbit data is extracted from the following two-line orbital elements,

1 25104U 97082A   14205.47619258  .00000133  00000-0  40621-4 0  8265
2 25104 087.0296 345.8899 0002536 122.1783 302.8049 14.34228673868628
Epoch (UTC): 24 July 2014 11:25:43
Eccentricity: 0.0002536
inclination: 87.0296°
perigee height: 776 km
apogee height: 779 km
right ascension of ascending node: 345.8899°
argument of perigee: 122.1783°
revolutions per day: 14.34228673
mean anomaly at epoch: 302.8049°
orbit number at epoch: 86862

The dashed part of the orbit path shows where the satellite is in the earth's shadow,  

DLR